Location: LDNL
(36.4545°S, 141.6685°E)
Time: 21:18:22
(UTC+10:00)

ISS - Visible Passes

Search period start: 31 May 2020 00:00
Search period end: 10 June 2020 00:00
Orbit: 417 x 419 km, 51.6° (Epoch: 31 May)

Date Brightness Start Highest point End Pass type
(mag) Time Alt. Az. Time Alt. Az. Time Alt. Az.
05 Jun -1.5 07:09:31 10° SSW 07:12:00 18° SSE 07:14:27 10° ESE visible
06 Jun -1.2 06:22:07 10° S 06:23:52 13° SSE 06:25:37 10° SE visible
07 Jun -2.7 07:09:56 10° SW 07:13:12 41° SE 07:16:27 10° ENE visible
08 Jun -2.0 06:23:13 16° SSW 06:25:11 26° SSE 06:28:06 10° E visible
09 Jun -1.4 05:37:22 18° SE 05:37:22 18° SE 05:39:30 10° ESE visible
09 Jun -3.5 07:10:45 10° SW 07:14:08 60° NW 07:17:28 10° NE visible
